CZ-6A DEB, 60889

Orbit data source: Space-Track

CZ-6A DEB, 60889 is space debris in LEO originally from a launch on Tue, 06 Aug 2024 UTC launched from the Taiyaun Space Center, China (TSC). Debris objects in space refer to the collection of defunct objects orbiting the Earth. Examples of debris include non-operational satellites, rocket bodies, and fragments generated from explosions, collisions, or faulty payload assembly.

Loading next visibility...
Identifier
60889, 2024-140KU
Orbit
LEO
Country
Flag of CNCN / PRC
Related business
Manufacturer
SAST
Mission
Spacecraft
Bus & Motor
Unknown
Mass
Unknown
Launch date (UTC)
2024-08-06 (2 years ago)
Launch vehicle
Unknown
Launch site
Taiyaun Space Center, China (TSC)
Object type
Payload
Rocket body
Debris
Shape & HBR
Unknown shape, 0.2 m
Radar Cross Section
Medium (>0.1 m² and <1 m²)

Expand to show TLE details & history
Last TLE update: 14 hours ago

TLE from 14 hours ago
0 CZ-6A DEB
1 60889U 24140KU  26171.28084306  .00000843  00000-0  36418-3 0  9990
2 60889  89.0027 274.1809 0038126 174.4754 185.6866 14.23206255 93969
Epoch: 2026-06-20T06:44Z
TLE epoch observation values (Epoch: 2026-06-20T06:44:24.840Z)
Latitude
-0.00007°
Longitude
-95.42033°
Altitude
844.882 km
Speed
7.416 km/s
True Right ascension
18h 16m 43s
True Declination
0° 00' 00"
Sunlit
Object was in full shadow at epoch
Visualization orbit readout
Latitude
Unknown
Longitude
Unknown
Altitude
Unknown
Speed
Unknown
Apparent Right ascension
Unknown
Apparent Declination
Unknown
Sunlit
N/A
Visualization observer readout
Local Sidereal Time
07:20:15
Azimuth
Unknown
Elevation
Unknown
Doppler factor
Unknown
Orbital elements
Apogee altitude
838.888 km
Perigee altitude
784.065 km
Semi-major axis
7,189.613 km
Eccentricity
0.00381
Inclination
89.0027°
RAAN
274.1809°
Arg. of periapsis
174.4754°
True anomaly
185.64351°
Mean anomaly
185.6866°
Eccentric anomaly
185.66504°
Mean motion
3.56029 °/min
Orbital period
101.12 mins
BSTAR
0.00036418
Loading maneuver chart data...
Computing Atmospheric mass density...
Loading historical data...
Loading historical data...
Loading historical data...
Loading historical data...
Loading historical data...
Loading historical data...
Loading historical data...

Documentation

Showing up to 5 results
|